This is the latest recevied weather packets stored in our database for station/object KG2V. If no packets are shown the sender has not sent any weather packets the latest 10 day(s).
| Time | Temp. | Humidity | Pressure | Rain* | Wind** | Luminosity | Snow |
|---|---|---|---|---|---|---|---|
| 1777844022 | 12.78° C | 50% | 1005.2 hPa | 0 mm | - | 173 W/m² | - |
| 1777843718 | 12.78° C | 50% | 1005.1 hPa | 0 mm | - | 154 W/m² | - |
| 1777843416 | 12.78° C | 51% | 1004.9 hPa | 0 mm | - | 130 W/m² | - |
| 1777843113 | 12.78° C | 50% | 1005 hPa | 0 mm | - | 93 W/m² | - |
| 1777842810 | 12.78° C | 51% | 1005.2 hPa | 0 mm | - | 86 W/m² | - |
| 1777842506 | 12.78° C | 49% | 1005.1 hPa | 0 mm | - | 77 W/m² | - |
| 1777842203 | 12.78° C | 51% | 1005.1 hPa | 0 mm | - | 94 W/m² | - |
| 1777841898 | 12.78° C | 48% | 1005 hPa | 0 mm | - | 121 W/m² | - |
| 1777841595 | 13.33° C | 47% | 1005.2 hPa | 0 mm | - | 155 W/m² | - |
| 1777841291 | 13.33° C | 48% | 1005.1 hPa | 0 mm | - | 200 W/m² | - |
| 1777840989 | 13.33° C | 47% | 1004.8 hPa | 0 mm | - | 187 W/m² | - |
| 1777840686 | 13.33° C | 47% | 1004.9 hPa | 0 mm | - | 209 W/m² | - |
| 1777840384 | 13.33° C | 48% | 1005.1 hPa | 0 mm | - | 219 W/m² | - |
| 1777840081 | 13.33° C | 46% | 1005.5 hPa | 0 mm | - | 249 W/m² | - |
| 1777839779 | 13.33° C | 46% | 1005.2 hPa | 0 mm | - | 233 W/m² | - |
| 1777839476 | 13.33° C | 46% | 1005.4 hPa | 0 mm | - | 290 W/m² | - |
| 1777839173 | 13.89° C | 44% | 1005.4 hPa | 0 mm | - | 282 W/m² | - |
| 1777838870 | 13.89° C | 44% | 1005.2 hPa | 0 mm | - | 231 W/m² | - |
| 1777838565 | 13.89° C | 44% | 1005.1 hPa | 0 mm | - | 229 W/m² | - |
| 1777838263 | 13.89° C | 43% | 1005.4 hPa | 0 mm | - | 355 W/m² | - |
| 1777837959 | 13.89° C | 45% | 1005.6 hPa | 0 mm | - | 406 W/m² | - |
| 1777837657 | 13.89° C | 47% | 1005.6 hPa | 0 mm | - | 522 W/m² | - |
| 1777837352 | 13.33° C | 43% | 1005.6 hPa | 0 mm | - | 477 W/m² | - |
| 1777837049 | 13.33° C | 43% | 1006 hPa | 0 mm | - | 410 W/m² | - |
| 1777836745 | 13.33° C | 42% | 1005.9 hPa | 0 mm | - | 423 W/m² | - |
* Rain latest hour (hover to see other rain measurements)
** Current wind speed in m/s (hover to see current wind gust speed)